Hourly Weather Roundup
Issued by NWS Central Illinois

Home | Current Version | Previous Version | Text Only | Print | Product List | Glossary On
Versions: 1 2 3 4 5 6 7 8 9 10 11 12 13 14 15 16 17 18 19 20 21 22 23 24 25 26 27 28 29 30 31 32 33 34 35 36 37 38 39 40 41 42 43 44 45 46 47 48 49 50
000
NZUS43 KILX 250510
HWRILX

AREA WEATHER ROUNDUP
NATIONAL WEATHER SERVICE, LINCOLN IL
1200 AM CDT SUN SEP 25 2016


CITY           SKY/WX    TMP DP  RH WIND       PRES   REMARKS
BLOOMINGTON    CLEAR     72  67  84 SE10      30.10F
CHAMPAIGN      CLEAR     69  66  90 E7        30.11S
DANVILLE       CLOUDY    69  66  89 E3        30.10S
DECATUR        CLEAR     68  63  84 E6        30.10S
EFFINGHAM      CLEAR     67  67 100 CALM      30.11R
FLORA          CLEAR     71  68  92 CALM      30.09R
GALESBURG      CLEAR     71  66  84 E6        30.06F
JACKSONVILLE   CLEAR     72  65  79 SE5       30.06S
LACON          CLEAR     70  65  84 E3        30.08R
LAWRENCEVILLE  CLEAR     71  67  87 NE3       30.09R
LITCHFIELD     CLEAR     71  62  74 SE6       30.08R
$$


CITY           SKY/WX    TMP DP  RH WIND       PRES   REMARKS
LINCOLN        CLEAR     72  66  83 SE5       30.07S
MACOMB         CLEAR     66  64  94 CALM      30.08S
MATTOON        CLEAR     70  66  87 SE5       30.10R
MT CARMEL AP   CLEAR     68  65  90 CALM      30.09R
OLNEY-NOBLE AP CLEAR     66  66 100 E3        30.09R
PARIS          CLEAR     69  68  96 CALM      30.12S
PEORIA         CLEAR     75  68  78 SE9       30.07R
PONTIAC        CLEAR     71  68  92 E7        30.10F
RANTOUL          N/A     71  67  89 CALM      30.12R FOG
ROBINSON       CLEAR     65  65  99 CALM      30.11R
SPRINGFIELD    CLEAR     72  65  78 S6        30.07R
TAYLORVILLE    CLEAR     70  65  84 E5        30.08S
$$

...REGIONAL REPORTS...


CITY           SKY/WX    TMP DP  RH WIND       PRES   REMARKS
CHICAGO O`HARE CLEAR     68  63  84 E8        30.12F
KANKAKEE       CLEAR     68  65  90 E7        30.12F
MOLINE         CLEAR     69  66  90 E9        30.05F
MOUNT STERLING PTCLDY    70  65  85 CALM      30.06R
MOUNT VERNON   CLEAR     66  61  82 CALM      30.09R
PITTSFIELD     CLEAR     72  67  85 CALM      30.06F
QUINCY         PTCLDY    73  66  78 SE6       30.05R
ROCKFORD       CLEAR     65  62  90 E7        30.12F
$$


CITY           SKY/WX    TMP DP  RH WIND       PRES   REMARKS
BURLINGTON     CLEAR     69  68  96 SE8       30.04F
CEDAR RAPIDS   PTCLDY    69  69 100 E7        30.03S FOG
DES MOINES     CLOUDY    69  67  93 SE6       30.00F THUNDER
KIRKSVILLE     CLOUDY    75  67  76 S10       30.03F
OTTUMWA        CLOUDY    75  64  68 S6        30.01S
ST LOUIS       PTCLDY    77  67  71 E5        30.07R
$$


CITY           SKY/WX    TMP DP  RH WIND       PRES   REMARKS
TERRE HAUTE    CLEAR     71  66  84 CALM      30.11R
EVANSVILLE     CLEAR     72  66  81 CALM      30.08R
INDIANAPOLIS   CLEAR     72  65  78 E8        30.12S
LAFAYETTE      CLEAR     68  64  87 E8        30.13R
MADISON        CLEAR     61  59  93 SE3       30.13R
MILWAUKEE      CLEAR     66  61  84 SE9       30.14F
$$





USA.gov is the U.S. government's official web portal to all federal, state and local government web resources and services.